SL-6 R/B(2)

Last updated on Thu Nov 21 2024 00:02:12 GMT+0000 (Coordinated Universal Time)

1 20666U 90055D 24325.50808874 .00005421 00000+0 43088-3 0 9992 2 20666 62.7852 62.5543 0061117 160.0906 200.2597 15.00150649866966
UTC large
Height (km)
Speed (km/s)
/
Latitude / Longitude
Inclination (degrees)
Orbital Period (minutes)
Azimuth
Elevation
Range (km)
Doppler Factor

Next 0 passes for location: London (51.5072 / 0.1276)

Sorry there are no passes over London.